When you browse on this site, cookies collect data to enhance your experience and personalize the content and advertising you see.
Visit our Privacy Policy to learn more. By continuing to use the site, you agree to this use of cookies and data.
  • în România
  • Lista ţărilor
  • Pe 7 zile
  • Temperatura apei
  • Hartă satelitară
  • Meteo pe hartă
  • Widget-uri
  • user-avatar
    Intrare

    Meteo pe oră la Booué

    Astăzi, 24 Iunie, Luni

    Timp Temperatura Precipitaţii Vânt Presiune Umiditate
    00:00 +24°C° 0 mm 1 m/s 736 mmHg 81%
    01:00 +24°C° 0 mm 1 m/s 736 mmHg 83%
    02:00 +23°C° 0 mm 1 m/s 735 mmHg 86%
    03:00 +23°C° 0 mm 1 m/s 735 mmHg 89%
    04:00 +23°C° 0 mm 1 m/s 735 mmHg 92%
    05:00 +23°C° 0 mm 1 m/s 735 mmHg 92%
    06:00 +23°C° 0 mm 1 m/s 735 mmHg 92%
    07:00 +23°C° 0 mm 1 m/s 736 mmHg 91%
    08:00 +25°C° 0 mm 1 m/s 736 mmHg 85%
    09:00 +26°C° 0 mm 1 m/s 736 mmHg 78%
    10:00 +27°C° 0 mm 1 m/s 736 mmHg 72%
    11:00 +29°C° 0 mm 1 m/s 736 mmHg 64%
    12:00 +31°C° 0 mm 1 m/s 735 mmHg 57%
    13:00 +33°C° 0 mm 1 m/s 735 mmHg 50%
    14:00 +33°C° 0 mm 1 m/s 734 mmHg 49%
    15:00 +33°C° 0 mm 1 m/s 733 mmHg 48%
    16:00 +33°C° 0 mm 1 m/s 732 mmHg 48%
    17:00 +31°C° 0 mm 1 m/s 733 mmHg 56%
    18:00 +29°C° 0 mm 1 m/s 733 mmHg 64%
    19:00 +27°C° 0 mm 1 m/s 734 mmHg 72%
    20:00 +26°C° 0 mm 1 m/s 734 mmHg 74%
    21:00 +26°C° 0 mm 1 m/s 735 mmHg 76%
    22:00 +25°C° 0 mm 1 m/s 735 mmHg 78%
    23:00 +25°C° 0 mm 1 m/s 735 mmHg 79%

    Mâine, 25 Iunie, Marţi

    Timp Temperatura Precipitaţii Vânt Presiune Umiditate
    00:00 +24°C° 0 mm 1 m/s 735 mmHg 81%
    01:00 +24°C° 0 mm 1 m/s 735 mmHg 82%
    02:00 +24°C° 0 mm 1 m/s 735 mmHg 85%
    03:00 +23°C° 0 mm 1 m/s 734 mmHg 88%
    04:00 +23°C° 0 mm 1 m/s 734 mmHg 92%
    05:00 +23°C° 0 mm 1 m/s 735 mmHg 91%
    06:00 +23°C° 0 mm 1 m/s 735 mmHg 91%
    07:00 +23°C° 0 mm 1 m/s 735 mmHg 91%
    08:00 +25°C° 0 mm 1 m/s 736 mmHg 84%
    09:00 +26°C° 0 mm 1 m/s 736 mmHg 78%
    10:00 +27°C° 0 mm 2 m/s 737 mmHg 71%
    11:00 +28°C° 0 mm 2 m/s 736 mmHg 67%
    12:00 +30°C° 0 mm 2 m/s 735 mmHg 62%
    13:00 +31°C° 0 mm 2 m/s 735 mmHg 58%
    14:00 +31°C° 0 mm 2 m/s 734 mmHg 58%
    15:00 +31°C° 0 mm 2 m/s 733 mmHg 58%
    16:00 +31°C° 0 mm 2 m/s 733 mmHg 57%
    17:00 +29°C° 0 mm 2 m/s 733 mmHg 64%
    18:00 +27°C° 0 mm 2 m/s 734 mmHg 71%
    19:00 +25°C° 0 mm 2 m/s 734 mmHg 78%
    20:00 +25°C° 0 mm 2 m/s 735 mmHg 80%
    21:00 +24°C° 0 mm 1 m/s 735 mmHg 83%
    22:00 +24°C° 0 mm 1 m/s 736 mmHg 85%
    23:00 +23°C° 0 mm 1 m/s 736 mmHg 86%

    Poimâine, 26 Iunie, Miercuri

    Timp Temperatura Precipitaţii Vânt Presiune Umiditate
    00:00 +23°C° 0 mm 1 m/s 736 mmHg 87%
    01:00 +23°C° 0 mm 1 m/s 736 mmHg 89%
    02:00 +22°C° 0 mm 1 m/s 735 mmHg 90%
    03:00 +22°C° 0 mm 1 m/s 735 mmHg 91%
    04:00 +22°C° 0 mm 1 m/s 735 mmHg 93%
    05:00 +22°C° 0 mm 1 m/s 735 mmHg 92%
    06:00 +22°C° 0 mm 1 m/s 736 mmHg 92%
    07:00 +22°C° 0 mm 1 m/s 736 mmHg 92%
    08:00 +24°C° 0 mm 1 m/s 737 mmHg 85%
    09:00 +25°C° 0 mm 1 m/s 737 mmHg 78%
    10:00 +26°C° 0 mm 1 m/s 738 mmHg 71%
    11:00 +27°C° 0 mm 1 m/s 737 mmHg 68%
    12:00 +28°C° 0 mm 1 m/s 737 mmHg 64%
    13:00 +29°C° 0 mm 1 m/s 736 mmHg 61%
    14:00 +29°C° 0 mm 1 m/s 736 mmHg 58%
    15:00 +30°C° 0 mm 1 m/s 735 mmHg 56%
    16:00 +31°C° 0 mm 1 m/s 734 mmHg 54%
    17:00 +29°C° 0 mm 1 m/s 735 mmHg 62%
    18:00 +27°C° 0 mm 1 m/s 735 mmHg 69%
    19:00 +25°C° 0 mm 1 m/s 735 mmHg 77%
    20:00 +25°C° 0 mm 1 m/s 736 mmHg 79%
    21:00 +24°C° 0 mm 1 m/s 736 mmHg 82%
    22:00 +21°C° 0 mm 0 m/s 737 mmHg 84%
    23:00 +21°C° 0 mm 0 m/s 737 mmHg 85%

    27 Iunie, Joi

    Timp Temperatura Precipitaţii Vânt Presiune Umiditate
    00:00 +21°C° 0 mm 0 m/s 736 mmHg 86%
    01:00 +20°C° 0 mm 0 m/s 736 mmHg 87%
    02:00 +20°C° 0 mm 0 m/s 736 mmHg 89%
    03:00 +20°C° 0 mm 0 m/s 736 mmHg 90%
    04:00 +20°C° 0 mm 0 m/s 735 mmHg 92%
    05:00 +20°C° 0 mm 0 m/s 736 mmHg 92%
    06:00 +20°C° 0 mm 0 m/s 736 mmHg 91%
    07:00 +20°C° 0 mm 0 m/s 736 mmHg 91%
    08:00 +22°C° 0 mm 0 m/s 737 mmHg 82%
    09:00 +26°C° 0 mm 1 m/s 737 mmHg 72%
    10:00 +28°C° 0 mm 1 m/s 737 mmHg 63%
    11:00 +30°C° 0 mm 1 m/s 737 mmHg 57%
    12:00 +31°C° 0 mm 1 m/s 736 mmHg 51%
    13:00 +33°C° 0 mm 1 m/s 735 mmHg 45%
    14:00 +33°C° 0 mm 1 m/s 735 mmHg 44%
    15:00 +33°C° 0 mm 1 m/s 734 mmHg 43%
    16:00 +33°C° 0 mm 1 m/s 733 mmHg 42%
    17:00 +31°C° 0 mm 1 m/s 733 mmHg 50%
    18:00 +29°C° 0 mm 1 m/s 734 mmHg 57%
    19:00 +27°C° 0 mm 1 m/s 734 mmHg 65%
    20:00 +26°C° 0 mm 1 m/s 734 mmHg 68%
    21:00 +25°C° 0 mm 1 m/s 735 mmHg 70%
    22:00 +23°C° 0 mm 0 m/s 736 mmHg 73%
    23:00 +22°C° 0 mm 0 m/s 736 mmHg 75%

    28 Iunie, Vineri

    Timp Temperatura Precipitaţii Vânt Presiune Umiditate
    00:00 +22°C° 0 mm 0 m/s 736 mmHg 76%
    01:00 +21°C° 0 mm 0 m/s 736 mmHg 78%
    02:00 +23°C° 0 mm 1 m/s 735 mmHg 82%
    03:00 +22°C° 0 mm 1 m/s 735 mmHg 86%
    04:00 +22°C° 0 mm 1 m/s 735 mmHg 90%
    05:00 +22°C° 0 mm 1 m/s 735 mmHg 91%
    06:00 +22°C° 0 mm 1 m/s 736 mmHg 91%
    07:00 +22°C° 0 mm 1 m/s 736 mmHg 92%
    08:00 +24°C° 0 mm 1 m/s 736 mmHg 84%
    09:00 +26°C° 0 mm 1 m/s 737 mmHg 75%
    10:00 +28°C° 0 mm 1 m/s 737 mmHg 67%
    11:00 +29°C° 0 mm 1 m/s 736 mmHg 61%
    12:00 +31°C° 0 mm 1 m/s 736 mmHg 55%
    13:00 +32°C° 0 mm 1 m/s 735 mmHg 50%
    14:00 +32°C° 0 mm 1 m/s 734 mmHg 49%
    15:00 +32°C° 0 mm 1 m/s 734 mmHg 48%
    16:00 +32°C° 0 mm 1 m/s 733 mmHg 47%
    17:00 +30°C° 0 mm 1 m/s 733 mmHg 55%
    18:00 +28°C° 0 mm 1 m/s 733 mmHg 62%
    19:00 +26°C° 0 mm 1 m/s 734 mmHg 70%
    20:00 +26°C° 0 mm 1 m/s 734 mmHg 73%
    21:00 +25°C° 0 mm 1 m/s 735 mmHg 76%
    22:00 +24°C° 0 mm 1 m/s 735 mmHg 79%
    23:00 +24°C° 0 mm 1 m/s 735 mmHg 81%

    29 Iunie, Sâmbătă

    Timp Temperatura Precipitaţii Vânt Presiune Umiditate
    00:00 +24°C° 0 mm 1 m/s 735 mmHg 82%
    01:00 +23°C° 0 mm 1 m/s 735 mmHg 84%
    02:00 +23°C° 0 mm 1 m/s 735 mmHg 86%
    03:00 +22°C° 0 mm 1 m/s 735 mmHg 89%
    04:00 +22°C° 0 mm 1 m/s 735 mmHg 91%
    05:00 +22°C° 0 mm 1 m/s 736 mmHg 91%
    06:00 +22°C° 0 mm 1 m/s 736 mmHg 90%
    07:00 +22°C° 0 mm 1 m/s 736 mmHg 89%
    08:00 +24°C° 0 mm 1 m/s 737 mmHg 80%
    09:00 +26°C° 0 mm 1 m/s 737 mmHg 71%
    10:00 +28°C° 0 mm 1 m/s 737 mmHg 62%
    11:00 +30°C° 0 mm 1 m/s 737 mmHg 57%
    12:00 +32°C° 0 mm 1 m/s 736 mmHg 52%
    13:00 +34°C° 0 mm 1 m/s 735 mmHg 47%
    14:00 +32°C° 0 mm 0 m/s 734 mmHg 46%
    15:00 +32°C° 0 mm 0 m/s 734 mmHg 46%
    16:00 +31°C° 0 mm 0 m/s 733 mmHg 45%
    17:00 +30°C° 0 mm 0 m/s 733 mmHg 51%
    18:00 +28°C° 0 mm 0 m/s 733 mmHg 57%
    19:00 +26°C° 0 mm 0 m/s 734 mmHg 63%
    20:00 +25°C° 0 mm 0 m/s 734 mmHg 67%
    21:00 +25°C° 0 mm 0 m/s 735 mmHg 70%
    22:00 +24°C° 0 mm 0 m/s 736 mmHg 73%
    23:00 +25°C° 0 mm 1 m/s 736 mmHg 75%
    Arată mai mult